EDDF Airport Information

Runway Information
Runway 07C Length 13123 ft width 197 ft
Elevation 329 ft Threshold 0 ft Heading 70
Runway 25C Length 13123 ft Width 197 ft
Elevation 364 ft Threshold 0 ft Heading 250
Runway 07L Length 9186 ft width 148 ft
Elevation 305 ft Threshold 0 ft Heading 70
Runway 25R Length 9186 ft Width 148 ft
Elevation 353 ft Threshold 0 ft Heading 250
Runway 07R Length 13123 ft width 148 ft
Elevation 328 ft Threshold 0 ft Heading 70
Runway 25L Length 13123 ft Width 148 ft
Elevation 362 ft Threshold 0 ft Heading 250
Runway 18 Length 13123 ft width 148 ft
Elevation 326 ft Threshold 0 ft Heading 180
Runway 36 Length 13123 ft Width 148 ft
Elevation 316 ft Threshold 0 ft Heading 360
Airport Frequencies
Type A/D Name LANGEN RAD Frequency 118.45 MHZ
Type A/D Name LANGEN RAD Frequency 127.275 MHZ
Type AFIS Name LANGEN INF Frequency 119.15 MHZ
Type ATIS Name ATIS Frequency 118.025 MHZ
Type CLD Name DELIVERY Frequency 121.9 MHZ
Type DIR Name DIR Frequency 124.2 MHZ
Type GND Name GND Frequency 121.8 MHZ
Type RMP Name APN Frequency 121.7 MHZ
Type TWR Name TWR Frequency 119.9 MHZ
Airport Navaids
Type VORTAC Name Frankfurt Frequency 114200 KHZ
Type NDB Name Frankfurt Frequency 297 KHZ
Type DME Name Frankfurt Frequency 115900 KHZ
Type NDB Name Frankfurt Frequency 382 KHZ
Airport Weather Information & NOTAM
ADDS - METARS form results

(0133 UTC 19 August 2018)
 
METAR text: EDDF 190120Z 21002KT CAVOK 14/09 Q1021 NOSIG
Conditions at: EDDF (FRANKFURT MAIN A, DE) observed 0120 UTC 19 August 2018
Temperature: 14.0°C (57°F)
Dewpoint: 9.0°C (48°F) [RH = 72%]
Pressure (altimeter): 30.15 inches Hg (1021.0 mb)
Winds: from the SSW (210 degrees) at 2 MPH (2 knots; 1.0 m/s)
Visibility: 6 or more miles (10+ km)
Ceiling: ceiling and visibility are OK
Clouds: unknown
Weather: no significant weather observed at this time

METAR text: EDDF 190050Z VRB02KT CAVOK 14/09 Q1021 NOSIG
Conditions at: EDDF (FRANKFURT MAIN A, DE) observed 0050 UTC 19 August 2018
Temperature: 14.0°C (57°F)
Dewpoint: 9.0°C (48°F) [RH = 72%]
Pressure (altimeter): 30.15 inches Hg (1021.0 mb)
Winds: variable direction winds at 2 MPH (2 knots; 1.0 m/s)
Visibility: 6 or more miles (10+ km)
Ceiling: ceiling and visibility are OK
Clouds: unknown
Weather: no significant weather observed at this time